Вернуться в каталог

STARLINK-30924

АктивенСвязьVLEO
NORAD 58412·PAYLOAD·🇺🇸 United States

Запущен Nov 22, 2023 с Cape Canaveral Space Force Station

Loading…

Ближайшие Пролёты (ближайшие 24 часа)

TLE

СвежийSource: CelesTrak SupGP

Эпоха: Sep 14, 2026, 22:42 UTC

1 58412C 23180L   26257.94631944  .00216970  00000+0  87682-3 0  2571
2 58412  42.9811 237.8679 0027362 135.4595 153.3823 15.84601043    19

Отслеживайте STARLINK-30924 в реальном времени с AllMySat

Download on the App Store